Wind_Gust
14 14 13 12 12 11 12 11 11 11 10 10 10 11 10 10 10 10 9 9 9 9 10 10 10 11 12 13 14 12 10 21 16 17 18 21 11 14 10 6 17 12 9 15 15 16 17 16 16 14 17 19 16 19 16 15 11 16 21 20 19 18 15 9 14 14 15 15 14 17 17 19 20 9 9 12 17 18 19 16 13 13 12 16 23 28 29 29
13 13 13 13 12 11 11 10 10 10 10 10 10 10 10 10 10 10 11 10 9 10 10 10 11 12 12 13 14 10 16 18 19 16 27 10 7 10 6 8 15 14 10 16 18 17 15 17 15 17 17 20 13 17 16 19 15 20 17 18 20 14 11 11 11 11 14 15 18 18 14 17 18 14 12 18 18 22 22 18 19 18 16 18 24 28 28 27
13 13 12 12 12 11 11 11 11 12 11 11 12 11 11 11 10 10 11 11 10 10 11 11 11 12 13 13 13 10 18 18 16 16 12 6 9 10 7 9 16 14 19 14 13 14 13 13 15 18 18 17 19 16 19 18 19 16 16 20 21 12 12 10 11 14 15 17 20 20 17 20 13 12 12 17 18 22 25 27 24 22 22 24 27 26 27 26
13 12 12 13 13 13 12 12 11 11 12 12 11 11 11 11 11 11 11 11 11 11 11 11 12 12 13 14 10 18 18 18 14 13 14 8 11 12 10 12 15 18 16 11 12 11 10 12 14 17 15 19 17 11 22 19 22 16 21 21 15 10 15 12 11 13 15 16 20 18 17 18 11 10 14 10 17 21 21 18 20 24 25 26 28 28 26 27
14 14 14 13 13 13 12 12 12 11 11 12 12 11 11 11 12 11 11 11 11 11 11 12 12 13 14 13 11 17 15 17 16 9 14 8 14 15 13 12 13 19 14 15 14 12 13 14 16 15 17 19 15 17 17 15 15 11 20 17 16 13 17 15 13 11 15 14 17 16 17 15 13 13 15 15 18 19 20 17 10 19 24 29 31 30 28 28
15 14 14 13 13 13 13 12 12 12 11 11 11 11 11 11 11 11 10 10 10 11 11 11 12 13 14 11 20 14 15 12 13 12 9 6 16 16 13 9 7 13 16 17 13 13 14 15 17 18 20 16 17 20 17 13 14 22 19 20 16 16 18 14 16 13 12 17 16 18 13 15 14 13 13 16 16 18 14 13 12 18 22 23 25 29 27 28
15 14 14 14 14 14 14 13 13 12 11 11 11 11 11 11 11 11 10 10 10 11 11 11 12 13 13 14 15 14 15 17 9 14 12 12 13 14 14 11 10 16 16 15 14 16 15 15 17 13 14 12 13 15 12 14 17 21 20 10 14 14 18 17 17 12 15 15 19 15 12 17 13 14 11 17 9 12 12 12 16 20 20 23 26 24 23 24
15 15 15 15 15 14 14 13 12 12 12 11 11 11 11 10 10 10 10 10 10 11 11 11 12 13 12 16 14 15 10 16 15 12 12 12 17 18 16 16 16 16 17 14 14 13 13 15 15 13 16 15 16 17 13 15 18 21 23 14 14 13 16 17 16 15 15 18 18 14 16 14 11 11 11 15 13 11 12 14 20 23 22 23 22 24 23 23
16 16 16 15 15 14 14 13 13 13 12 11 11 11 11 10 10 10 10 10 10 10 10 11 11 12 10 15 16 16 17 14 12 9 18 19 20 19 20 19 15 17 14 12 11 10 15 13 10 14 12 14 13 13 14 17 22 20 16 13 15 16 15 14 16 16 15 15 9 12 12 9 10 9 13 9 13 12 13 16 20 25 24 24 24 23 23 23
16 16 16 15 15 15 14 14 13 12 12 11 11 10 10 10 9 9 9 9 9 9 10 10 11 12 15 15 15 14 13 11 9 10 17 16 19 20 16 15 18 15 15 12 10 12 12 14 11 10 10 12 12 10 8 18 17 8 12 15 18 18 16 11 14 12 10 12 9 12 8 9 11 15 17 10 12 14 15 18 20 23 25 24 24 23 22 23
17 16 16 16 16 15 14 14 13 12 12 12 11 11 10 9 9 8 8 8 9 8 9 10 9 15 14 13 17 15 9 7 11 12 15 17 19 19 15 15 14 16 12 12 12 10 9 8 8 10 15 13 13 14 15 9 12 12 14 17 20 18 13 11 13 12 15 14 10 15 11 9 11 12 16 13 13 14 16 19 20 21 24 25 25 25 22 23
17 17 16 16 16 15 14 14 14 13 12 12 11 11 10 9 9 8 8 7 8 8 7 7 8 15 14 16 15 16 8 9 12 13 16 18 18 9 9 12 12 12 12 13 12 10 9 8 10 12 15 14 14 11 14 7 13 12 12 19 13 11 14 10 9 10 13 11 11 11 12 15 15 11 14 12 12 14 16 19 20 21 23 24 25 26 25 25
17 17 17 16 16 15 15 14 14 13 13 13 12 11 11 10 9 9 8 8 6 7 6 7 12 13 12 14 15 12 8 10 12 13 14 16 12 9 10 7 9 9 9 10 11 9 9 10 11 12 9 15 9 15 13 12 12 14 16 15 17 16 17 14 11 11 11 12 9 12 22 21 17 14 13 12 14 14 16 18 20 21 23 24 24 25 25 23
16 16 16 16 16 15 14 14 14 13 13 13 13 11 10 10 10 8 8 8 6 7 8 5 13 14 14 11 13 10 8 9 12 15 16 15 15 14 12 10 8 8 8 9 10 10 11 11 12 11 10 14 11 8 15 15 13 20 9 15 15 18 19 16 13 13 14 10 10 14 23 19 15 13 11 11 11 15 16 17 19 20 21 23 24 23 23 23
17 17 16 16 15 15 15 14 14 13 13 13 13 11 10 10 11 9 6 8 8 6 8 7 13 12 14 17 9 10 8 10 14 14 16 18 15 15 13 12 11 9 8 7 8 8 9 10 13 15 12 9 13 15 16 15 15 14 19 21 15 20 25 18 13 18 15 14 8 14 20 14 16 13 10 10 11 13 14 15 18 19 20 20 21 21 23 23
17 17 15 15 15 15 15 14 14 13 13 13 12 12 13 11 10 9 7 5 3 6 12 14 14 15 19 18 14 13 12 12 13 9 15 14 13 10 15 13 10 10 10 8 9 9 9 10 13 12 10 14 16 17 13 18 18 16 20 10 13 15 16 19 16 13 13 13 10 15 20 12 15 14 11 9 11 13 14 15 16 18 19 20 21 21 21 23
17 17 16 15 14 14 14 14 13 12 11 11 12 11 10 8 7 8 6 7 12 11 13 13 9 11 9 15 14 13 12 11 10 12 13 11 10 14 16 16 14 13 11 9 11 11 10 14 10 13 12 13 9 13 18 15 13 16 14 10 9 15 15 21 19 15 11 12 15 11 19 12 15 10 11 10 12 13 14 14 15 17 17 18 19 21 22 22
17 17 16 15 14 14 13 13 12 11 10 8 9 4 7 7 8 10 7 11 10 12 13 13 14 14 16 12 13 13 9 8 9 11 11 13 10 14 11 13 11 13 15 15 13 15 12 13 14 10 11 10 13 16 17 14 14 11 14 12 17 12 13 14 17 17 13 10 10 11 15 13 9 9 12 12 13 14 14 15 14 15 16 18 19 21 23 22
17 16 16 14 13 13 12 12 11 9 7 6 6 7 6 8 15 14 13 16 14 14 15 17 16 15 16 17 10 8 8 8 8 13 15 17 13 11 9 7 10 17 16 17 17 14 15 13 13 15 17 15 11 13 15 15 11 9 10 12 9 15 20 19 15 14 14 11 15 13 16 12 9 11 12 13 14 15 15 12 11 13 15 17 19 21 22 21
16 16 14 14 13 12 11 10 9 8 6 8 14 13 13 13 15 14 17 15 18 14 15 10 10 11 14 13 10 12 9 11 15 10 15 13 18 15 12 12 12 15 14 16 16 10 10 16 16 15 8 10 8 8 10 10 10 9 11 13 14 15 11 11 11 13 11 14 14 10 10 12 10 9 11 12 13 16 16 17 16 16 16 19 20 21 21 19
16 14 14 13 12 10 10 9 7 6 7 13 11 14 13 16 16 15 19 13 10 11 13 10 11 13 13 12 11 11 12 16 9 17 14 15 14 18 17 15 16 18 15 9 7 11 14 17 12 8 9 7 7 8 7 8 8 12 13 15 16 15 16 13 12 9 10 14 12 10 13 15 10 9 11 14 14 18 19 18 17 17 18 18 19 21 22 18
16 15 13 12 10 10 8 8 7 5 7 13 14 12 11 12 12 12 14 14 11 8 10 11 8 14 11 13 10 9 12 14 16 16 13 15 17 23 18 18 15 17 15 12 13 16 17 18 12 10 10 10 9 9 10 8 9 12 16 16 15 19 10 13 12 9 9 13 16 9 16 17 11 10 11 15 15 15 16 17 17 18 19 20 20 20 19 19
16 14 12 10 9 7 7 6 6 7 11 13 13 9 11 10 9 9 14 18 17 11 10 10 13 13 10 9 9 11 14 14 19 19 21 16 14 18 12 18 15 11 14 14 19 13 18 15 13 12 10 11 10 10 10 10 11 14 17 14 20 13 14 20 15 12 8 12 14 11 16 17 13 13 12 13 14 11 8 12 14 15 18 20 21 20 20 21
16 13 10 9 7 5 5 5 7 9 15 14 11 10 10 10 11 11 13 13 12 10 9 8 10 9 9 9 14 15 13 12 12 19 18 19 17 11 16 11 10 13 19 16 14 16 15 19 13 10 10 11 11 12 14 15 17 13 13 15 16 11 14 20 15 8 9 9 10 14 20 22 21 20 19 16 14 12 13 13 14 15 15 15 14 16 19 22
15 12 10 6 7 5 6 8 9 11 8 11 13 8 9 10 11 13 14 13 15 12 9 11 9 10 10 9 11 16 10 8 10 13 17 18 14 15 10 10 15 15 8 10 11 17 15 12 7 10 10 11 11 15 16 15 17 16 15 16 12 8 11 11 8 11 17 17 12 12 22 22 12 15 17 18 18 18 16 15 15 14 14 17 19 20 19 19
15 11 8 6 4 6 9 10 10 10 12 14 10 9 10 11 10 13 16 16 15 16 16 13 11 15 13 13 12 9 10 13 11 10 12 11 9 13 14 17 15 10 11 12 14 14 15 10 9 9 11 11 13 14 10 14 18 14 18 20 15 13 11 10 11 13 19 21 16 10 18 13 15 14 15 14 15 16 16 14 11 13 15 17 19 19 20 21
16 12 8 5 4 10 11 8 9 10 15 13 9 9 11 12 8 13 18 13 13 12 9 16 14 18 13 10 11 11 19 17 12 12 12 10 14 8 18 14 13 10 8 7 18 16 10 12 11 9 11 15 13 20 15 19 18 17 10 13 15 14 14 13 13 13 20 11 8 11 18 21 18 16 15 14 15 17 18 15 12 13 12 13 14 16 17 20
15 12 8 5 7 14 12 15 11 14 12 13 10 11 10 8 11 13 16 12 18 12 11 16 12 11 11 10 10 16 15 11 16 12 8 11 11 14 18 10 12 12 13 14 13 16 10 11 12 12 13 17 21 12 10 17 22 13 8 10 14 15 11 11 16 15 12 12 21 19 12 21 23 16 13 13 19 18 18 15 12 12 12 11 13 15 15 16
16 12 8 5 7 12 15 13 13 12 12 10 12 12 10 11 15 18 14 12 14 12 14 11 12 12 10 10 13 10 10 8 13 14 12 12 10 12 16 10 9 10 10 12 16 14 11 10 8 11 15 18 10 10 9 15 19 10 10 11 12 10 11 11 18 17 12 17 18 15 13 22 21 12 17 17 17 16 15 11 10 11 10 9 10 10 13 16
15 12 8 5 9 11 13 11 16 10 9 11 12 9 9 13 16 14 13 11 10 15 13 13 14 10 10 14 12 10 14 11 9 12 14 12 14 11 10 10 10 12 14 14 17 12 11 8 9 12 16 12 11 12 9 8 11 15 13 16 17 16 15 15 13 15 16 18 23 12 11 16 24 13 13 11 13 14 12 10 10 10 12 13 13 15 16 17
15 11 7 9 15 10 10 14 12 9 8 11 11 11 13 17 14 13 9 11 13 17 13 9 10 10 14 17 18 12 10 10 11 12 16 13 17 12 12 14 11 15 15 14 17 11 13 15 14 15 12 10 9 12 9 8 11 16 19 19 18 17 14 18 17 13 18 22 14 14 9 12 19 16 13 13 10 10 10 12 13 15 16 18 17 18 18 17
17 12 10 19 11 10 13 12 11 8 11 11 11 13 16 16 16 17 7 12 18 14 10 13 11 9 11 12 12 13 15 15 10 12 13 13 13 16 14 15 11 16 18 14 14 13 17 18 11 12 10 14 16 17 16 14 14 18 19 19 19 21 16 20 23 19 21 20 14 12 13 15 24 20 15 13 11 10 9 11 13 15 18 18 18 19 18 17
18 9 11 18 7 11 13 11 10 10 12 12 14 13 18 13 15 12 12 14 11 13 16 9 12 9 10 13 15 11 9 11 11 10 9 10 13 13 11 11 10 15 18 12 16 14 16 12 13 13 13 16 16 24 19 21 21 21 21 19 22 25 23 20 21 20 19 11 14 11 10 21 17 14 15 13 11 10 9 9 10 12 14 15 17 17 17 17
17 5 14 12 17 13 12 11 12 11 13 10 15 16 13 10 12 8 10 11 13 10 8 9 9 10 10 9 13 11 16 12 10 11 12 11 13 10 14 12 9 12 16 11 19 10 13 17 18 12 13 12 17 23 16 15 16 22 16 20 20 23 26 20 23 22 22 15 13 14 12 12 14 13 13 13 10 10 11 9 10 9 10 11 13 15 15 15
14 9 9 10 12 15 13 14 10 11 12 14 15 18 11 13 9 13 14 12 13 9 10 9 11 11 15 14 10 11 14 12 12 8 11 12 10 7 9 13 11 11 8 15 12 11 15 22 17 10 12 10 12 10 13 16 18 16 15 17 21 22 14 27 12 20 18 15 13 18 15 11 14 15 13 12 14 13 11 12 9 11 11 11 12 14 16 17
9 11 12 10 8 9 10 8 8 11 13 13 17 13 15 8 9 14 12 11 8 11 11 12 11 15 12 14 10 8 9 12 12 11 12 13 11 10 10 10 10 11 11 16 10 17 13 22 14 13 9 9 8 9 11 13 21 14 19 25 19 13 19 16 8 11 4 15 29 16 15 21 15 16 15 16 16 15 13 13 12 12 13 12 15 16 17 18
8 9 12 9 9 14 10 8 10 12 12 16 15 14 9 10 10 8 10 10 11 9 13 19 16 15 13 15 13 12 11 9 11 14 14 11 13 10 10 12 11 8 11 16 11 11 16 14 13 10 12 11 8 9 9 12 16 15 21 19 15 10 14 17 23 11 17 25 22 13 15 22 19 22 21 19 18 18 16 14 15 13 12 15 17 16 17 18
13 7 7 11 15 13 9 9 9 12 14 15 14 4 10 13 10 8 9 9 12 12 16 18 12 11 12 13 16 13 11 16 13 12 9 11 10 10 8 9 11 11 12 9 15 11 13 21 17 11 9 12 10 11 14 12 11 22 17 15 20 18 19 20 21 24 19 25 27 21 21 27 25 19 22 20 21 20 18 16 16 16 14 15 15 16 17 16
11 12 16 12 17 12 8 9 11 13 15 18 14 11 16 8 12 7 8 9 10 10 18 11 12 12 11 13 8 9 8 16 12 11 15 13 15 10 9 11 12 10 8 10 12 9 10 15 16 12 9 10 13 16 21 17 14 12 11 20 10 19 24 21 21 22 27 24 21 20 20 26 22 22 21 23 22 21 20 17 15 15 14 14 14 16 17 18
10 15 13 11 17 10 9 10 11 13 16 18 13 15 13 13 13 10 8 10 12 15 13 10 12 11 14 10 9 11 12 13 13 9 13 11 11 11 8 7 11 10 10 8 10 9 7 9 19 14 13 11 24 23 20 18 16 18 19 23 18 21 11 20 23 28 27 28 26 26 29 26 14 12 17 20 21 21 19 18 16 15 14 15 15 15 16 18
7 14 11 11 18 10 10 12 17 18 18 9 10 10 12 10 13 12 7 8 10 9 11 12 11 15 10 12 15 12 12 13 13 16 13 11 14 12 10 9 9 10 8 10 13 9 11 12 17 19 20 19 15 16 13 14 16 19 19 21 22 22 21 24 27 19 26 32 30 26 32 26 15 12 9 20 20 20 17 18 18 16 15 15 15 14 15 16
11 16 13 14 14 9 13 17 16 8 15 15 12 11 13 8 12 9 11 10 10 9 8 10 8 12 11 15 12 12 15 14 14 15 11 16 14 13 13 7 9 9 15 11 11 12 12 15 18 19 21 25 13 11 11 10 12 13 16 22 17 18 21 28 29 23 20 27 20 26 25 15 16 12 12 17 17 18 17 17 18 17 16 15 15 16 15 15
8 11 12 13 13 10 15 19 10 11 16 11 9 9 9 10 8 9 12 9 13 9 11 15 9 13 10 12 11 16 13 16 11 14 9 11 12 12 10 11 7 11 15 10 11 13 5 14 18 23 21 22 12 10 11 9 11 17 17 16 17 23 20 25 27 21 22 17 19 23 25 22 15 12 12 14 13 14 15 14 18 18 16 16 15 15 15 15
10 10 10 13 14 10 16 19 15 14 13 11 9 10 9 9 9 10 11 9 12 8 10 9 11 9 9 9 11 15 12 16 12 14 14 10 13 11 9 11 8 11 12 11 11 14 11 12 14 18 21 19 19 18 19 13 14 21 22 10 11 15 14 14 17 17 25 26 27 28 34 22 15 11 12 13 14 15 16 14 15 18 16 16 16 14 14 13
13 8 9 13 19 11 18 11 13 7 10 10 12 12 13 12 11 12 10 10 9 9 10 9 10 9 10 9 10 9 10 15 12 10 10 11 13 11 9 11 10 9 11 13 7 9 14 17 15 19 20 20 20 19 20 16 21 14 8 10 11 13 13 15 22 24 28 20 22 29 32 16 18 13 14 14 14 15 15 16 14 16 16 17 16 14 13 14
11 7 9 10 17 16 16 8 11 9 8 10 6 8 8 11 12 10 8 11 10 8 11 8 9 9 10 12 13 15 15 10 17 10 16 15 16 13 8 7 10 9 9 9 8 11 14 12 17 21 24 24 20 21 14 16 16 22 14 12 12 10 11 15 19 23 30 22 25 23 26 22 17 18 18 17 15 17 17 18 19 18 16 15 13 13 13 13
10 11 11 8 9 16 14 15 13 10 6 10 9 8 10 8 9 11 10 10 11 9 9 10 8 12 11 13 12 13 11 11 13 14 13 12 12 12 10 7 8 11 10 8 8 11 16 17 18 20 22 25 24 23 18 15 23 24 23 20 18 15 14 18 21 27 17 22 32 24 20 21 22 19 19 18 18 17 18 20 20 19 18 17 15 13 8 13
10 9 10 11 11 11 8 11 16 11 11 9 9 8 8 8 8 7 11 11 7 10 10 10 9 9 9 10 10 15 13 15 13 12 11 9 11 14 15 13 11 8 11 10 9 13 16 17 12 13 21 22 21 21 19 17 20 23 23 21 20 19 18 19 18 25 23 25 31 18 17 17 19 18 16 17 18 19 21 22 20 18 19 17 16 17 16 14
15 10 11 11 8 13 14 12 11 10 12 11 10 8 8 7 9 11 10 10 9 9 11 5 8 11 9 9 12 14 12 16 12 10 11 11 11 10 16 15 12 12 12 10 10 9 15 19 20 20 22 23 23 20 20 22 23 24 24 24 24 23 24 23 24 23 26 27 26 25 23 20 20 19 20 17 18 19 19 17 17 18 19 19 18 17 16 14
17 16 12 11 8 12 12 10 8 9 9 11 4 11 10 9 9 10 11 13 6 8 10 9 10 10 11 9 9 10 11 12 11 5 9 7 10 13 11 12 11 15 12 9 9 9 11 16 12 16 22 24 22 23 22 23 23 30 26 26 25 24 24 24 25 23 23 27 23 24 18 20 20 20 20 12 9 10 17 20 20 19 19 19 18 17 15 14
12 12 12 15 7 15 11 12 9 10 6 12 9 11 8 12 11 12 15 14 13 10 12 11 11 8 9 11 14 15 12 11 10 10 10 9 9 11 12 10 10 10 10 11 10 9 11 19 11 17 22 24 21 23 23 24 26 29 28 26 27 24 23 24 28 20 20 20 22 21 24 25 21 22 22 13 12 16 19 19 20 19 19 19 19 17 16 14
12 9 11 14 7 9 12 8 8 12 9 15 13 12 11 13 10 7 6 10 13 15 14 13 10 11 10 8 13 14 14 13 11 12 12 12 11 11 11 12 12 14 11 11 8 17 15 16 17 17 24 23 20 16 18 17 20 27 25 26 26 27 29 29 27 21 22 21 22 25 28 20 15 12 20 23 21 20 19 20 20 19 20 20 20 18 15 14
Wind_Speed
10 10 9 9 9 8 9 8 8 8 8 8 8 8 8 8 8 7 7 7 7 7 7 8 7 8 9 10 10 10 8 10 8 8 9 11 7 11 6 4 12 9 7 7 8 8 9 8 8 6 7 7 5 7 6 6 3 5 7 7 7 6 5 1 5 4 6 5 4 7 8 9 11 1 1 4 9 9 9 8 5 6 4 7 12 17 18 18
10 10 10 9 9 9 8 8 8 8 8 8 8 8 8 7 7 8 8 7 7 7 8 8 9 9 9 10 11 8 10 9 10 8 15 6 6 7 4 6 10 11 8 8 10 9 7 8 7 9 7 8 5 4 7 5 5 7 5 6 7 4 1 3 3 4 5 4 8 8 7 9 9 6 3 7 10 12 11 9 10 9 8 10 15 17 17 17
10 9 9 9 9 9 9 9 9 9 9 9 9 9 8 8 8 8 8 8 8 8 8 8 9 9 10 10 10 9 10 9 8 8 4 5 8 7 5 7 13 9 10 7 6 7 6 6 7 9 7 6 7 5 9 5 7 6 5 7 8 4 3 2 3 6 7 8 9 9 8 11 6 4 4 8 8 11 13 11 13 12 12 14 16 16 17 17
10 9 9 10 10 10 10 9 8 8 9 9 8 8 8 8 8 8 8 9 9 8 8 9 9 9 10 11 7 9 9 9 4 5 6 6 9 9 6 10 12 12 9 4 5 4 3 4 6 8 6 8 7 3 9 6 8 6 7 8 4 2 5 3 3 5 7 8 9 9 8 9 4 3 6 3 7 10 10 9 11 13 15 16 16 16 16 16
10 11 10 10 10 10 9 9 9 9 9 9 9 9 9 8 9 8 8 8 8 8 9 9 9 10 10 10 8 8 7 6 6 3 7 6 11 11 10 10 11 11 7 7 6 5 6 7 8 7 7 6 5 7 7 6 5 1 9 8 8 4 7 6 5 4 6 7 9 8 9 7 5 5 6 7 7 7 8 9 3 9 14 17 17 17 16 17
11 11 11 10 10 10 10 10 9 9 9 9 9 8 8 9 8 8 8 8 8 8 9 9 9 10 11 7 10 6 5 2 3 3 7 5 12 12 10 8 6 7 8 9 6 6 7 7 8 7 7 6 7 8 7 4 6 8 8 10 8 7 8 5 6 5 5 7 8 8 5 7 7 5 5 6 7 9 6 5 5 9 12 13 14 15 16 17
11 11 11 11 11 11 11 10 10 9 9 9 8 8 8 8 8 8 8 7 8 8 8 8 9 11 10 11 6 6 6 6 2 6 9 9 10 11 9 6 6 8 9 7 7 6 7 7 9 5 5 4 5 5 4 6 8 10 7 1 6 7 8 7 8 6 7 8 9 7 6 9 6 6 3 7 2 5 4 5 8 10 11 13 15 14 15 15
12 12 12 12 11 11 11 10 9 9 9 9 8 9 8 8 8 8 8 7 8 8 8 8 9 10 10 8 5 5 2 6 7 6 9 10 11 11 10 9 9 9 9 7 6 6 6 7 6 5 6 5 6 7 6 7 9 9 10 6 7 5 6 7 7 6 7 9 9 7 8 7 4 3 2 5 5 4 4 7 11 12 12 13 13 14 14 15
12 12 13 12 11 11 11 10 10 10 9 9 8 8 8 7 7 7 7 7 7 8 8 8 9 9 7 7 6 6 6 6 6 3 10 11 12 12 12 8 8 9 6 5 4 3 7 4 2 5 2 5 5 5 6 8 8 10 8 6 6 7 6 6 7 8 7 5 2 5 5 2 3 1 5 2 6 5 5 8 11 14 14 14 14 14 14 14
13 13 13 12 12 12 11 11 10 9 9 9 9 8 8 8 7 7 7 7 7 7 7 8 9 10 8 6 6 3 5 5 3 3 10 9 12 12 10 7 10 7 7 5 3 5 5 6 4 2 1 3 4 2 2 9 5 0 5 7 8 8 7 4 6 4 3 5 2 5 2 2 3 6 6 3 5 6 7 9 11 13 15 14 14 13 13 14
13 13 13 13 13 12 11 10 10 10 10 9 9 9 8 8 7 6 6 6 6 6 6 7 7 11 6 5 7 4 2 1 3 4 8 10 12 11 7 7 7 7 5 5 5 3 2 1 1 2 5 3 6 6 7 0 4 5 5 8 10 9 6 4 6 5 6 5 4 7 3 2 4 5 6 5 6 7 8 10 11 11 13 13 15 15 13 13
13 13 13 13 13 12 11 11 11 10 10 9 9 9 8 8 8 6 5 5 6 6 5 5 6 5 6 7 5 6 2 2 3 4 7 10 9 3 3 4 5 5 5 6 5 3 1 1 4 4 2 4 4 3 5 0 5 5 5 8 5 5 5 2 2 3 6 3 4 4 5 7 7 4 6 5 5 6 8 9 11 12 12 13 14 14 13 13
13 13 13 13 12 12 12 11 11 10 10 10 10 9 9 8 7 7 6 5 4 5 4 4 8 3 5 5 6 5 1 2 4 6 7 7 4 2 3 1 2 2 2 3 3 3 2 3 4 5 1 6 2 3 4 4 5 6 7 6 7 7 6 5 4 4 5 4 2 4 8 8 7 7 6 5 6 7 8 9 10 10 11 12 13 12 13 12
13 13 13 13 12 12 11 11 11 11 10 11 10 9 8 8 8 6 5 6 4 5 5 0 4 5 5 3 4 4 2 2 5 8 8 7 8 6 5 3 2 1 2 2 3 2 4 3 5 4 3 6 1 1 6 6 5 7 1 5 5 6 6 7 3 6 5 3 3 6 9 6 7 6 4 4 4 7 7 8 10 10 11 12 12 12 12 13
14 13 13 13 12 12 11 11 11 10 11 11 10 9 8 8 8 7 4 6 6 4 6 5 4 4 5 6 3 4 3 3 7 7 7 9 7 7 6 5 4 3 1 1 1 1 2 4 6 6 3 1 4 7 6 6 5 4 6 7 5 7 10 9 4 4 4 5 1 6 7 3 7 5 3 3 4 6 5 7 9 9 10 10 10 11 11 11
13 13 12 12 12 12 11 11 10 10 10 10 10 10 10 9 8 6 5 3 1 4 4 6 5 5 8 6 5 7 5 5 5 2 7 7 6 3 7 6 4 3 3 2 1 1 2 3 5 4 2 6 7 6 4 5 6 5 7 3 4 4 6 8 7 5 6 5 3 6 7 4 6 6 4 2 4 5 6 6 8 9 11 10 10 10 11 11
14 13 13 12 12 12 11 11 10 9 9 9 10 9 8 6 5 6 5 5 5 5 4 3 1 3 2 4 4 5 5 4 3 5 6 4 3 6 8 8 6 6 5 3 4 3 3 6 2 4 4 4 2 4 6 5 3 5 4 1 1 5 4 6 9 5 3 4 5 4 7 4 6 2 3 3 4 5 6 6 6 7 7 9 9 10 11 11
14 13 13 12 12 11 11 10 9 8 7 7 7 4 1 5 5 8 4 6 2 3 4 4 4 4 4 4 5 5 1 2 3 4 5 5 4 7 4 5 5 5 7 7 5 6 4 4 4 2 3 3 4 6 6 4 4 3 5 3 6 4 5 4 5 7 2 3 2 3 6 5 1 2 4 4 5 6 6 5 5 6 7 8 9 10 12 11
13 13 13 11 11 10 10 9 8 6 5 3 4 3 4 7 5 5 4 5 4 4 5 5 5 4 4 8 4 1 2 2 3 6 7 8 5 4 3 1 3 8 7 7 6 6 5 4 4 5 6 5 2 4 4 6 3 2 2 4 1 5 8 7 6 6 6 2 6 5 5 1 1 3 4 5 5 7 7 5 3 5 6 8 9 10 11 11
13 13 11 11 10 10 9 8 7 6 4 5 5 4 4 4 5 4 6 6 8 6 7 2 2 3 5 2 4 4 2 4 7 4 8 6 7 8 5 5 5 7 6 5 7 3 2 6 5 5 1 4 3 2 4 4 4 2 4 6 5 6 3 3 3 5 4 5 5 1 3 4 3 1 4 4 5 7 8 8 7 7 7 8 9 10 11 10
13 12 11 10 9 8 8 7 6 4 5 6 4 5 3 6 7 3 7 4 3 4 6 4 4 6 4 4 2 2 5 8 3 8 6 7 7 9 7 7 7 7 6 1 0 4 5 6 4 2 4 2 1 1 1 0 3 5 5 7 6 6 5 5 4 2 2 6 2 2 5 7 3 0 4 6 6 9 10 9 9 9 9 8 9 10 11 9
13 11 10 9 8 7 6 6 5 3 5 5 5 3 3 5 4 4 5 2 3 2 3 4 2 6 4 5 3 2 6 5 8 8 5 7 8 10 9 8 7 7 7 5 5 6 6 7 5 4 4 2 2 3 4 3 3 5 6 6 6 7 1 5 5 2 2 4 6 1 7 7 4 3 4 6 7 7 8 9 8 8 9 8 8 9 9 10
13 11 9 8 7 5 5 4 4 4 3 4 5 1 3 3 2 1 5 6 6 4 4 4 5 6 3 2 2 4 7 6 8 10 9 8 7 8 4 7 6 3 5 7 7 4 7 5 7 5 3 5 4 4 4 4 4 5 7 5 7 3 4 7 7 5 1 3 5 3 6 7 6 6 5 6 6 4 2 6 7 7 8 9 9 8 9 11
12 10 8 7 5 4 3 2 4 4 6 7 4 3 2 2 3 3 5 4 3 3 2 1 3 2 2 1 5 7 6 4 4 11 9 9 7 4 6 4 3 4 7 8 7 6 3 10 6 3 4 5 5 6 7 6 6 6 6 6 6 3 5 9 5 2 3 2 4 6 8 9 10 9 8 7 6 5 6 6 6 6 6 6 7 8 9 11
12 9 7 4 5 3 4 6 4 4 1 4 5 1 2 3 4 5 6 3 4 3 2 4 3 3 3 2 4 6 3 1 2 5 7 9 5 6 2 2 5 5 1 3 4 7 5 5 2 4 4 5 5 7 8 6 6 6 8 8 6 2 5 4 2 4 6 6 3 4 7 8 3 6 8 7 7 9 7 7 7 6 7 8 9 10 9 10
12 9 6 4 2 4 6 4 3 2 5 5 2 1 3 3 3 4 6 4 5 5 6 5 3 5 1 6 5 2 3 3 4 3 4 2 2 5 3 6 3 1 4 5 4 4 5 3 4 3 5 5 6 6 4 7 7 5 6 11 8 6 5 4 5 5 7 8 6 4 6 3 4 5 6 5 6 8 7 6 4 5 6 7 9 9 9 10
12 9 6 3 2 7 4 1 2 3 6 4 2 2 3 3 2 5 5 3 2 2 2 5 4 5 3 4 4 3 9 6 4 5 5 3 6 1 8 5 4 1 1 1 5 5 3 5 4 3 4 7 5 9 7 9 7 5 4 6 7 7 7 6 6 4 7 4 2 4 6 8 6 6 6 6 7 8 9 7 5 4 5 5 6 6 7 8
12 9 6 4 5 11 4 5 4 6 3 5 3 4 3 1 4 4 5 3 4 3 3 6 4 1 3 3 4 7 7 3 6 5 1 4 4 6 7 1 4 4 6 4 4 6 4 4 5 6 6 6 8 4 4 9 9 3 1 3 7 7 5 5 6 6 4 4 8 7 5 7 8 3 5 5 9 9 9 7 5 4 4 4 4 5 6 7
12 10 6 4 5 9 6 5 5 4 4 2 4 4 1 4 6 5 3 0 2 1 2 3 0 4 3 3 5 3 3 2 4 6 5 4 2 5 5 3 3 1 3 5 5 6 4 4 2 5 6 7 1 3 2 6 9 4 2 2 4 3 4 4 7 7 4 6 7 7 5 7 8 4 6 8 7 7 6 3 3 4 3 1 1 2 5 6
12 10 6 4 5 4 4 4 7 3 1 4 4 2 2 5 5 5 3 4 0 5 4 3 5 2 2 6 4 4 7 4 2 4 6 3 7 5 1 3 3 5 5 6 8 3 3 2 2 4 6 4 3 4 3 1 3 4 6 7 7 6 5 6 5 5 6 6 10 2 4 6 8 5 5 3 3 5 2 2 2 2 2 2 3 4 5 6
12 8 5 7 5 1 2 5 3 1 1 4 4 4 5 5 4 2 5 3 3 6 4 3 2 2 6 8 7 4 3 3 4 5 7 5 8 5 4 5 2 5 5 5 7 4 5 6 5 4 6 1 1 4 3 0 3 7 6 7 7 6 4 7 6 4 6 8 1 5 2 5 7 5 4 4 3 2 2 2 3 4 5 6 7 7 8 7
14 9 7 9 3 2 5 4 4 1 3 5 5 5 5 5 4 6 1 3 6 5 2 4 3 1 4 3 4 5 5 7 2 4 4 4 5 6 4 5 3 5 7 5 3 3 7 7 4 5 3 7 7 7 6 5 6 7 8 7 8 7 4 6 8 7 6 7 5 3 5 6 10 8 5 5 3 2 2 3 3 5 6 7 7 7 6 6
15 7 9 9 2 4 5 3 3 3 5 6 5 5 6 3 6 3 3 5 1 3 5 2 4 2 3 6 6 4 1 1 3 3 2 2 4 4 4 3 3 5 6 3 6 5 4 5 4 5 5 7 7 9 6 8 8 9 8 7 9 9 8 8 7 6 6 3 5 3 2 8 7 2 5 4 3 3 2 1 2 4 5 6 7 7 6 6
14 3 5 5 7 4 4 4 4 4 6 4 6 5 5 3 3 3 1 2 5 3 2 1 3 4 3 1 5 3 6 5 2 3 5 3 5 3 5 4 2 5 6 4 7 2 4 7 6 5 3 4 7 10 6 5 6 8 7 7 8 8 7 7 7 8 8 3 4 6 4 2 6 3 5 5 3 3 3 1 3 2 2 4 5 6 6 7
11 5 3 3 4 6 6 6 4 4 5 5 5 6 4 4 1 4 5 3 4 2 3 2 4 4 6 5 3 4 5 4 3 1 0 4 2 1 1 4 3 3 1 6 3 3 7 8 7 3 5 3 5 2 5 8 7 6 6 6 8 8 4 11 3 7 7 4 4 7 4 2 2 5 4 4 6 5 4 4 2 3 4 4 4 6 6 7
6 3 5 3 1 2 3 1 2 5 5 5 6 4 5 1 2 4 1 3 1 4 4 5 4 6 4 4 3 2 3 4 4 4 3 2 3 1 3 2 2 3 3 4 3 6 3 7 7 6 3 2 1 2 3 4 7 3 6 10 6 4 7 5 2 3 0 5 10 5 4 7 4 6 7 7 7 7 5 5 4 4 5 5 6 7 7 8
2 2 4 3 2 5 2 2 3 5 4 6 5 5 1 2 2 1 3 2 3 2 6 7 5 5 5 5 4 5 3 2 2 4 4 3 4 3 3 5 4 1 4 6 3 2 6 4 5 3 5 4 1 2 2 5 6 3 8 6 2 2 6 4 8 3 5 10 7 5 6 10 7 5 9 10 9 9 8 6 6 6 5 7 7 7 8 8
5 1 1 3 7 5 2 2 3 4 5 5 5 3 1 4 3 1 2 2 5 5 6 7 2 4 4 4 6 5 4 6 4 4 2 3 1 2 2 2 4 4 4 1 5 3 4 7 6 3 2 5 4 4 6 5 5 9 6 6 7 5 8 7 5 10 7 9 8 9 11 12 10 5 9 11 11 11 9 8 8 7 6 6 6 7 8 8
4 4 5 5 8 4 1 2 4 4 6 6 4 3 6 1 5 1 1 3 3 3 7 3 4 3 3 5 1 1 1 5 3 3 5 4 4 2 1 3 5 3 1 3 4 2 3 5 3 5 2 3 5 5 8 6 6 5 4 8 2 6 9 8 5 8 8 10 9 9 9 8 8 8 10 11 12 11 11 9 7 7 6 5 5 6 7 8
2 4 3 5 8 3 2 4 4 4 5 6 4 4 3 5 5 3 1 3 4 5 4 2 5 3 5 2 2 3 4 5 4 0 4 3 1 4 1 1 3 1 2 1 2 1 1 1 7 4 6 1 9 7 7 6 6 7 7 9 6 7 2 7 8 10 9 9 9 9 11 9 4 2 5 8 11 12 10 9 7 6 6 6 7 6 7 8
1 4 2 4 8 2 3 4 6 6 6 1 3 2 4 2 5 4 1 2 1 1 3 4 3 6 2 4 6 5 3 4 4 5 4 3 5 3 3 2 2 2 0 3 6 1 2 3 6 7 7 6 3 7 6 6 7 7 7 9 9 10 9 10 11 7 9 10 9 9 11 10 4 4 0 6 10 10 9 10 8 7 7 7 6 7 7 7
3 5 3 6 7 2 5 6 4 1 4 5 2 3 3 3 4 3 4 3 4 1 2 2 1 4 3 6 4 3 5 4 5 5 4 6 6 4 5 0 3 3 5 2 3 5 3 4 7 7 8 10 4 4 4 3 4 5 6 9 6 7 8 10 11 9 8 10 9 11 10 5 5 4 4 7 8 9 9 8 9 8 8 7 7 7 7 8
2 3 5 6 6 3 5 7 2 2 6 1 2 2 2 3 2 2 4 2 5 1 3 5 2 5 4 4 4 7 5 5 3 5 1 4 4 5 4 3 1 4 6 2 3 4 1 3 6 9 9 11 5 3 4 2 4 8 8 7 7 10 9 10 11 9 8 7 7 8 9 5 5 4 4 6 6 6 6 6 9 8 7 7 7 7 7 7
3 3 2 5 5 3 6 6 5 5 4 4 3 3 2 2 2 3 4 2 3 2 3 2 4 1 2 2 4 6 4 5 5 6 5 3 3 5 3 3 1 3 3 2 4 4 4 2 4 6 6 6 8 7 7 4 4 7 9 2 3 6 7 6 8 7 9 13 15 11 13 8 6 4 4 5 6 7 8 6 7 9 7 7 7 6 6 6
4 1 2 3 5 2 6 3 4 2 3 4 5 6 5 4 4 5 3 2 1 2 3 1 3 1 2 2 3 2 3 6 3 3 3 5 4 4 3 3 2 1 4 6 4 0 4 7 4 6 8 8 8 7 6 5 8 5 2 4 4 6 6 6 9 10 11 10 14 11 11 5 8 5 6 6 6 7 7 8 6 7 8 8 7 6 5 5
2 1 1 3 4 5 5 0 3 2 2 4 3 1 2 3 4 3 2 3 3 1 3 1 2 2 3 5 6 7 6 4 7 2 6 5 6 4 2 1 3 2 5 5 2 3 4 4 6 8 10 10 8 10 5 7 6 7 7 5 5 4 4 7 8 8 12 10 11 12 13 11 7 8 9 8 7 9 9 9 9 9 8 7 6 5 5 5
2 2 3 2 1 5 5 4 3 2 0 3 2 1 3 2 2 4 3 2 3 2 2 1 1 4 4 6 5 6 4 4 6 6 5 5 4 4 4 1 2 5 3 1 2 2 5 6 9 12 13 13 13 13 10 7 12 13 13 12 10 8 7 10 9 10 9 9 14 10 12 10 11 10 10 9 9 8 9 10 11 9 9 8 7 5 5 5
1 2 2 2 3 3 1 3 6 3 3 2 2 1 1 1 2 1 4 3 0 1 3 3 3 2 3 4 4 5 6 7 5 5 4 2 3 6 5 6 4 2 4 2 1 4 6 6 6 7 12 13 12 12 11 9 11 12 13 12 12 11 11 11 10 14 14 10 12 10 10 10 10 9 7 8 8 10 10 11 10 10 10 8 8 8 7 6
4 2 3 3 2 4 5 4 4 3 4 4 2 1 1 0 2 4 3 2 2 2 3 1 2 2 1 2 5 5 5 6 5 3 4 4 4 3 6 6 5 4 5 3 2 2 4 6 11 11 13 13 14 12 11 13 12 13 14 14 15 15 15 14 14 14 15 16 16 14 15 12 10 10 11 8 9 9 9 8 8 10 10 10 9 8 7 6
5 5 3 4 1 4 4 2 2 2 1 3 1 4 3 2 2 3 3 5 0 2 2 3 2 2 1 0 2 2 4 5 4 1 3 2 4 5 4 4 1 6 4 1 1 2 2 3 7 8 10 12 13 14 14 13 13 16 16 16 16 15 15 15 15 14 15 16 14 15 11 10 9 11 11 2 2 2 4 9 11 10 10 10 10 9 7 6
3 3 3 5 0 5 3 3 2 2 1 3 1 3 2 4 4 4 7 6 6 4 5 4 4 1 1 3 6 7 5 4 3 4 3 3 3 3 4 2 2 3 3 3 3 2 3 8 5 6 9 11 11 13 14 14 16 18 17 17 17 15 13 13 11 10 10 10 13 13 13 10 9 12 12 4 5 7 10 11 9 9 10 11 10 9 8 7
3 2 3 4 1 3 4 1 1 4 2 5 5 5 3 5 3 0 2 3 5 7 6 6 3 3 3 2 6 7 6 5 4 5 4 4 3 3 3 3 3 5 3 3 1 6 5 5 5 7 11 10 10 8 9 9 10 13 13 15 15 17 18 16 15 13 13 12 11 12 12 9 6 4 10 12 12 11 10 11 10 8 9 10 9 8 7 6
Wind_Direction
325 324 322 315 320 324 310 309 306 301 300 301 300 300 301 306 303 301 300 298 301 302 305 302 309 308 302 308 312 316 322 290 285 254 231 252 61 123 155 111 154 173 206 192 166 180 185 189 190 169 205 201 173 219 131 211 193 214 219 236 236 246 227 226 249 244 16 270 348 342 358 341 328 46 145 222 202 217 163 176 123 111 79 88 117 128 135 144
325 323 324 321 317 314 309 305 306 303 303 303 301 299 297 297 300 288 293 299 302 300 299 306 308 308 313 310 308 326 303 288 270 258 245 85 116 146 164 158 166 174 211 196 182 193 188 191 185 185 197 204 136 198 163 173 210 224 229 243 252 215 250 355 345 308 298 308 323 322 340 337 337 299 132 237 186 180 173 177 168 148 120 119 132 133 139 149
327 320 316 313 312 312 311 312 315 312 309 309 307 305 303 300 301 300 296 302 304 303 297 302 310 311 309 312 312 311 298 284 256 235 126 103 137 167 179 170 178 178 207 183 189 194 212 185 172 196 200 211 184 182 204 156 210 220 259 230 240 259 282 289 284 279 286 309 300 317 333 316 2 292 78 252 190 187 188 170 176 169 148 147 138 143 148 153
319 317 317 314 313 311 313 312 304 304 302 301 299 296 298 295 292 293 293 296 300 299 302 303 310 312 311 306 345 310 280 275 228 79 95 133 155 165 176 155 167 187 219 202 165 176 149 159 182 214 182 231 160 226 195 151 228 142 235 246 263 50 279 249 250 263 288 301 302 303 323 308 70 327 264 257 201 202 207 185 185 175 156 147 148 148 154 155
324 317 316 309 307 306 308 308 307 306 309 303 304 302 297 293 289 293 293 288 293 300 300 308 307 309 310 319 315 277 274 253 86 90 53 174 159 168 158 151 172 190 194 143 158 160 190 176 177 207 209 194 178 192 223 151 254 193 235 255 287 269 259 268 270 308 296 302 291 292 291 341 332 247 243 242 226 198 207 150 167 161 157 152 153 155 158 160
317 312 310 310 306 307 309 308 307 308 307 307 299 296 294 291 292 293 292 289 291 296 300 301 307 311 310 332 294 246 256 27 38 34 26 124 150 158 154 162 205 216 164 169 176 168 183 180 192 186 201 216 185 213 154 203 174 241 218 244 247 270 281 306 289 286 295 288 282 292 333 314 292 289 240 238 239 44 42 112 137 157 153 145 148 156 161 163
313 309 309 310 311 307 306 308 311 311 307 305 304 300 298 294 291 289 288 293 288 289 296 302 307 311 322 296 269 254 263 75 18 61 92 115 141 147 149 161 196 184 179 166 180 185 197 180 221 179 203 225 171 228 128 198 206 249 262 135 251 258 260 270 273 277 263 277 280 304 301 284 289 265 163 231 132 54 78 147 126 131 140 146 154 165 160 163
315 313 311 310 307 303 303 305 307 306 306 309 307 304 305 297 293 291 288 291 293 292 298 304 308 308 335 292 241 211 218 47 36 74 113 124 148 157 164 173 183 179 190 191 179 196 188 193 199 164 221 224 135 216 155 220 205 232 247 249 267 268 264 262 271 281 280 271 276 277 271 271 267 314 186 230 143 91 126 145 138 137 145 154 155 164 159 163
315 310 307 304 304 302 303 309 308 306 306 305 303 306 304 309 298 295 288 283 287 290 293 300 307 313 301 276 272 265 72 35 18 95 144 153 154 162 172 156 188 188 188 191 215 194 212 135 178 242 165 190 150 211 180 230 207 218 254 274 264 259 263 277 287 273 266 271 265 251 247 247 239 184 222 143 123 130 123 133 143 145 153 157 159 165 165 166
312 309 306 304 303 305 305 303 302 301 303 303 302 303 305 299 300 290 283 282 284 291 292 301 304 313 287 255 261 243 80 13 95 124 156 158 154 162 196 158 179 187 186 183 191 197 246 124 331 149 33 88 183 184 150 232 25 102 260 260 271 277 282 289 280 271 236 252 225 256 192 153 169 222 140 134 133 139 141 138 147 153 154 159 159 164 167 169
311 310 309 305 303 303 301 300 300 301 303 303 300 299 301 302 294 289 286 283 283 285 292 293 312 297 270 261 278 88 58 281 98 143 159 161 162 176 168 171 187 195 202 167 204 214 68 149 121 152 231 79 193 162 231 265 336 258 275 281 265 253 255 276 249 248 229 193 204 224 182 188 149 233 57 117 148 164 156 149 156 159 157 159 161 165 169 174
312 311 306 302 300 300 300 300 302 300 298 298 295 291 294 297 290 284 280 279 276 287 295 285 296 288 279 270 277 65 134 27 132 142 164 170 178 195 163 184 206 232 205 179 186 182 216 25 273 264 357 170 206 163 193 183 259 273 278 263 243 211 197 185 200 153 225 116 200 233 194 183 185 99 79 118 154 177 173 162 165 162 157 160 162 167 175 179
313 310 306 301 300 300 301 301 299 299 298 298 297 291 290 291 293 286 273 258 246 258 272 301 277 261 289 224 68 92 142 124 148 152 156 187 172 177 187 213 231 261 261 247 155 201 219 258 290 276 71 273 144 292 66 262 253 261 241 272 244 206 172 111 159 157 180 80 267 229 210 177 156 91 96 131 163 184 177 174 168 163 162 163 166 174 178 178
315 310 304 301 301 300 298 296 299 300 299 296 295 293 285 282 281 282 266 269 273 254 258 153 281 260 262 89 107 114 164 120 147 172 173 169 173 143 165 179 186 211 237 25 56 20 244 243 276 300 294 260 126 78 240 213 214 235 150 239 259 212 126 96 104 156 126 103 240 221 250 166 118 105 100 130 183 184 185 179 173 165 167 165 171 177 178 175
314 310 304 302 301 298 296 298 301 299 299 297 294 292 287 272 265 263 259 244 237 246 250 254 240 260 223 93 123 104 109 198 184 187 177 181 176 147 171 167 181 178 158 333 12 339 239 235 245 235 179 188 263 244 220 197 187 222 214 201 175 241 111 99 71 44 151 128 209 241 247 185 110 89 103 141 182 206 201 179 176 171 170 168 171 177 181 175
314 309 305 302 299 299 298 298 298 300 300 300 296 295 286 266 248 236 232 245 61 228 235 241 210 262 282 135 106 138 185 201 158 151 174 214 200 142 148 168 154 171 205 178 263 172 200 235 269 356 290 193 224 229 211 193 185 197 255 119 202 229 116 144 98 92 68 123 147 244 269 205 148 92 107 151 194 205 208 182 179 182 178 179 182 181 182 169
315 308 306 302 299 298 299 297 298 300 302 300 305 293 275 257 224 208 198 211 207 222 237 290 272 240 274 72 142 198 142 100 98 152 172 211 237 135 147 154 164 161 179 146 191 213 177 239 129 228 244 279 316 263 241 215 175 192 236 167 88 252 156 164 119 89 108 264 162 190 252 245 74 150 121 169 214 208 217 192 182 185 186 187 190 186 184 178
313 310 305 302 298 299 297 296 298 296 302 306 305 312 194 183 168 149 153 205 193 228 250 258 276 257 134 188 190 104 49 141 152 106 158 161 206 173 196 175 140 153 161 147 156 207 164 218 219 268 190 213 220 220 238 218 202 176 194 198 181 199 270 27 185 71 317 173 236 156 250 268 113 203 195 178 204 223 216 206 194 194 193 193 197 197 193 187
316 311 306 299 301 297 294 295 292 292 282 16 336 110 109 169 196 231 219 168 208 183 206 166 208 248 85 133 59 154 138 69 116 185 149 168 189 193 196 245 182 169 176 218 129 216 172 236 223 237 219 197 189 304 309 15 346 319 250 252 230 210 182 214 85 58 4 277 220 198 259 231 81 191 170 178 200 218 218 202 213 212 204 203 206 205 202 196
319 313 306 303 300 296 292 289 288 273 262 214 197 184 192 208 188 182 198 223 246 306 342 9 276 279 250 209 128 24 88 171 166 174 145 167 166 181 182 208 178 232 219 231 141 204 346 242 220 220 3 57 45 330 341 341 332 305 256 252 227 259 169 114 86 51 0 291 230 0 263 251 271 75 166 191 192 217 219 211 212 213 215 214 210 211 206 196
320 317 309 304 298 295 288 281 268 263 248 251 242 239 344 9 328 42 340 277 224 265 286 281 284 293 328 354 304 306 173 156 228 150 165 173 196 184 167 202 202 217 200 40 237 95 247 246 220 2 38 45 58 147 217 253 258 245 230 234 218 213 238 97 84 70 60 305 179 175 265 249 232 334 163 168 205 218 216 214 214 218 222 226 225 219 213 197
327 318 312 304 298 289 283 275 253 232 245 244 237 274 79 30 0 347 295 265 183 218 252 264 277 270 250 254 283 282 278 164 154 147 134 197 174 221 140 229 205 235 123 171 186 196 214 239 95 102 77 104 147 190 206 220 219 222 236 216 249 210 217 105 113 138 65 280 258 114 272 263 219 243 156 189 202 219 222 224 222 218 223 229 230 228 222 207
328 325 313 310 297 288 278 256 239 181 219 216 221 211 48 21 312 271 248 272 269 148 238 213 220 232 221 171 189 200 217 193 157 165 166 207 175 243 144 211 196 183 167 202 231 197 236 184 116 102 144 164 155 192 191 200 229 213 214 232 223 73 216 185 147 148 138 300 318 322 283 271 251 225 216 193 203 177 203 233 235 237 233 233 236 231 225 216
333 327 323 306 298 279 256 144 140 203 229 253 280 34 32 310 296 226 233 284 348 150 215 146 283 257 198 269 144 200 237 117 234 161 149 197 209 124 225 231 173 212 203 197 242 263 0 82 97 139 179 226 183 180 200 215 209 203 253 240 244 180 219 293 105 197 131 180 256 269 254 251 232 218 204 178 183 198 203 206 226 234 248 253 256 252 241 234
335 332 322 314 282 245 179 136 205 218 185 218 239 121 291 293 277 246 266 240 206 140 151 171 242 225 108 139 165 225 152 165 271 75 166 214 160 190 190 97 259 209 117 129 230 238 171 88 80 203 217 213 211 194 211 242 245 188 208 245 263 226 267 214 264 255 227 205 151 293 276 258 170 217 228 154 181 203 195 213 210 211 217 227 237 240 240 240
337 328 327 305 224 218 134 215 163 143 209 237 82 73 306 289 235 239 255 258 141 101 184 157 214 128 196 159 168 216 260 195 68 89 174 242 318 301 140 199 261 66 151 198 259 339 49 115 190 218 216 214 222 257 172 223 256 234 184 203 223 242 226 229 228 232 237 250 127 279 277 283 162 201 177 184 195 191 164 195 200 209 213 216 227 231 233 237
336 329 313 305 198 159 201 71 50 203 240 165 104 327 312 269 190 177 240 199 156 60 289 71 216 88 275 90 200 168 221 111 118 132 190 180 215 116 257 132 179 155 27 344 234 157 155 146 188 224 225 226 219 222 176 215 253 227 94 187 208 207 208 214 246 240 276 352 214 226 254 275 267 233 145 167 208 198 176 158 173 190 206 227 231 235 236 239
327 326 307 264 194 194 330 316 254 242 318 51 347 325 307 236 176 224 258 218 79 204 140 155 30 120 276 127 234 252 27 105 188 116 260 129 244 173 254 212 250 126 170 224 260 102 208 159 198 213 236 248 243 19 132 220 238 40 54 177 204 208 201 222 235 256 291 303 272 202 207 249 247 213 154 181 216 206 208 161 159 166 187 206 241 263 272 266
325 319 295 259 208 226 269 270 298 289 54 5 344 315 310 159 212 255 262 132 74 222 359 119 78 203 164 170 202 224 248 278 317 100 133 165 235 315 231 196 250 116 172 262 312 125 173 263 213 263 271 240 32 63 331 206 234 101 143 162 160 181 203 238 252 251 210 249 261 255 188 272 267 213 211 172 243 212 185 167 166 135 154 150 264 290 280 276
325 312 285 171 161 197 217 223 241 310 329 343 322 310 177 199 223 224 203 232 103 148 229 64 225 121 213 220 161 161 211 135 39 135 167 198 156 202 61 326 233 211 209 208 258 325 90 118 37 257 246 298 54 61 10 295 46 125 186 181 186 196 209 214 254 274 268 244 252 194 170 267 276 244 225 220 42 24 50 171 111 56 16 4 11 316 326 315
319 304 264 183 224 30 205 217 161 136 314 316 307 246 228 222 243 254 202 61 242 85 174 169 144 223 209 199 159 142 146 139 139 183 153 173 166 208 151 185 222 234 238 222 237 186 198 164 198 198 239 198 217 146 125 273 187 196 202 220 221 209 204 237 225 218 249 256 139 125 197 204 253 218 184 86 91 52 340 322 339 340 344 345 345 339 335 331
326 299 221 201 307 319 246 33 45 339 315 310 277 246 223 232 195 245 139 125 232 119 255 104 100 66 131 82 91 154 137 133 88 208 217 181 169 205 176 285 160 240 227 225 194 156 239 219 125 151 185 223 199 233 153 176 189 222 227 232 243 237 228 243 226 228 226 252 114 104 163 222 231 271 108 122 109 88 52 339 336 329 332 340 334 339 337 335
334 309 196 217 254 236 254 328 302 305 307 277 269 232 238 250 235 186 157 186 106 341 127 304 42 193 145 185 101 112 2 83 102 121 294 142 256 93 46 313 8 285 291 91 285 270 244 113 172 150 172 199 235 226 164 210 194 218 230 227 237 248 235 249 256 261 275 209 113 144 150 254 285 178 78 107 86 78 73 35 348 346 338 337 338 344 350 353
338 183 165 196 215 253 317 290 272 285 284 257 243 213 244 249 228 26 243 192 74 112 75 34 134 135 241 250 90 314 166 84 278 115 235 153 219 154 136 104 239 215 237 268 268 298 285 195 165 186 160 129 223 246 302 322 199 224 251 251 246 261 260 257 245 247 236 265 102 128 219 235 232 82 75 89 100 110 122 95 81 9 356 351 352 1 7 11
329 253 228 145 226 239 251 275 263 240 242 256 222 235 212 230 208 183 201 155 148 154 129 167 214 186 123 127 81 54 348 126 61 201 109 244 158 229 116 95 85 300 272 263 141 281 256 292 100 34 56 179 235 243 287 278 264 223 236 266 254 246 253 263 331 310 321 302 208 160 254 226 298 121 120 137 132 128 129 116 106 80 45 30 29 25 18 25
279 179 205 184 190 56 308 253 211 203 243 248 232 218 237 268 219 190 144 13 112 226 130 188 212 216 169 141 124 140 86 302 101 244 106 65 58 90 90 48 33 347 270 261 95 242 188 245 91 102 141 211 349 285 223 247 254 126 231 229 255 341 262 271 170 81 332 262 268 262 228 236 137 171 146 149 149 141 142 130 112 87 71 57 46 28 27 31
287 158 199 145 67 0 351 222 200 231 243 252 244 238 240 171 338 195 72 268 24 321 219 235 168 256 199 177 167 145 102 227 142 268 167 135 155 93 146 102 358 284 349 312 218 303 287 297 129 204 184 109 352 284 263 229 287 226 240 238 113 274 296 249 269 186 225 255 255 226 236 253 235 250 156 164 172 159 151 140 118 102 95 77 53 38 32 32
308 245 97 69 3 341 288 192 241 231 248 240 236 291 201 236 144 307 53 238 191 225 249 239 142 276 201 220 186 163 120 261 120 220 271 193 52 35 163 156 95 13 342 274 289 80 279 264 238 138 314 118 157 221 202 203 226 264 300 52 245 215 224 208 257 254 251 251 262 239 233 249 244 230 152 175 184 167 157 145 140 122 94 77 61 46 39 35
268 239 201 55 358 359 203 203 237 251 238 234 244 216 195 307 112 146 72 308 304 233 239 223 279 162 283 217 131 139 205 261 88 264 263 141 229 101 58 335 146 62 3 283 254 62 204 274 239 125 227 108 232 222 256 188 177 237 263 247 225 278 258 251 227 267 267 268 260 254 246 252 243 252 199 188 185 170 155 159 136 109 86 70 57 38 38 37
279 236 186 46 5 358 152 231 242 229 242 243 236 238 93 191 160 129 177 271 189 231 242 218 212 244 202 299 257 269 126 275 261 199 261 112 253 103 132 214 339 37 28 275 335 296 268 204 275 150 135 212 240 209 254 273 231 191 216 236 201 235 4 293 263 251 257 265 265 279 271 257 281 351 248 199 178 163 162 151 131 114 92 79 61 49 44 44
249 269 119 31 8 342 211 222 229 224 236 182 299 318 175 198 159 151 125 256 272 346 326 238 216 224 222 191 211 210 224 228 232 247 231 166 229 176 99 5 346 306 139 233 223 132 268 217 244 280 260 240 265 61 13 340 338 305 279 255 248 250 238 239 252 229 247 260 257 262 266 273 60 346 215 167 150 150 149 142 132 119 106 92 81 64 57 58
261 241 107 28 12 211 216 226 210 325 269 242 227 185 152 19 212 145 182 157 265 172 178 276 246 270 208 236 297 175 250 238 223 256 199 275 141 284 98 324 270 302 285 286 334 67 323 310 275 260 256 260 31 72 59 327 296 302 294 277 286 280 260 257 263 257 246 252 282 266 279 279 76 85 60 124 142 147 138 141 134 127 115 108 98 89 80 69
278 321 67 2 16 230 216 244 157 205 233 46 100 168 118 200 261 92 231 148 222 187 208 225 193 222 208 270 211 245 225 248 236 256 60 216 105 64 70 3 265 225 260 211 184 133 154 250 250 248 255 260 253 125 117 156 250 252 236 254 261 254 274 271 277 297 292 263 242 255 246 249 109 103 111 125 114 118 126 144 144 134 127 123 116 110 100 91
315 309 145 37 353 242 229 233 229 218 210 120 224 120 61 33 253 190 223 89 316 177 256 188 168 272 45 198 228 246 179 253 177 243 204 203 156 76 57 16 248 245 278 28 305 86 264 193 260 276 264 250 223 196 205 160 230 247 258 226 303 293 284 287 301 275 263 260 264 262 264 261 126 139 142 150 149 148 151 148 156 142 141 135 129 118 111 105
277 180 283 19 20 253 241 356 291 271 173 170 192 183 168 167 49 16 333 47 3 6 257 198 17 70 198 166 227 222 192 255 268 160 349 191 113 131 75 21 328 130 51 30 338 257 242 274 252 257 259 253 249 246 252 227 222 211 252 271 249 269 262 257 251 247 254 254 263 257 257 277 110 152 169 175 170 160 156 157 155 153 149 148 140 131 126 118
339 252 109 113 27 83 85 63 10 298 160 169 188 93 250 185 134 64 326 86 12 67 360 19 144 246 211 192 210 222 207 189 248 200 200 194 151 142 92 78 43 59 64 45 346 239 271 265 259 261 267 266 279 284 57 332 301 259 255 235 239 234 276 272 278 267 256 261 247 241 258 268 197 169 191 183 190 181 169 172 174 162 157 147 142 143 136 123
338 2 359 12 14 78 83 46 49 334 217 349 235 44 193 233 99 131 358 235 72 350 99 347 264 223 207 225 229 226 216 205 202 242 226 222 155 113 123 211 126 65 349 228 39 251 246 260 244 248 255 267 278 283 295 318 289 286 280 272 270 258 246 251 251 258 287 280 263 255 264 256 258 234 220 193 189 194 185 184 183 172 164 165 154 138 142 137
1 49 332 30 309 35 308 66 4 54 63 254 72 316 36 213 192 170 121 66 85 19 272 162 214 228 249 248 216 232 199 223 204 212 155 222 169 169 183 176 202 84 265 178 250 269 274 263 271 265 262 266 269 271 274 271 268 272 274 276 272 266 254 246 248 255 264 256 265 291 290 265 256 270 268 232 210 205 199 190 188 175 168 162 163 166 164 148
39 49 58 326 281 58 11 356 334 349 54 14 95 348 106 322 95 58 10 355 173 87 316 199 188 84 155 223 235 239 192 215 203 177 228 182 219 194 213 158 184 179 200 190 97 24 288 254 269 262 271 270 270 262 261 259 260 258 256 259 259 259 259 257 257 254 254 255 260 267 273 269 260 275 278 256 218 215 219 205 178 177 177 170 173 174 164 157
36 344 37 340 47 49 21 357 334 266 103 9 244 44 30 39 82 114 67 5 58 65 345 225 120 97 78 173 241 230 54 17 28 144 110 256 171 225 260 294 84 168 240 272 340 104 268 290 73 277 276 271 268 268 261 254 256 260 258 257 256 255 257 253 257 259 261 265 267 271 269 262 258 272 269 42 27 214 188 180 190 188 179 178 179 176 167 160
5 7 325 307 71 17 336 16 350 342 155 49 39 69 59 47 81 55 78 32 33 31 16 20 19 129 103 92 84 72 40 11 357 18 340 313 295 53 284 100 319 265 223 269 220 166 206 276 264 270 272 269 266 264 262 265 267 264 260 253 251 251 250 249 251 249 248 254 262 261 257 261 257 241 244 209 219 216 219 213 198 187 186 181 187 179 170 159
308 169 255 286 358 9 334 21 25 251 92 44 14 38 22 58 45 26 100 63 57 42 23 359 16 298 125 137 62 31 360 333 333 330 334 316 307 301 283 307 306 296 292 271 28 277 255 272 265 266 267 272 283 274 272 289 287 269 255 244 241 245 253 259 258 252 243 247 253 253 260 291 337 283 253 246 245 247 241 236 217 191 193 187 186 179 164 156